TimeCST,TemperatureF,Dew PointF,Humidity,Sea Level PressureIn,VisibilityMPH,Wind Direction,Wind SpeedMPH,Gust SpeedMPH,PrecipitationIn,Events,Conditions,WindDirDegrees,DateUTC
12:56 AM,48.0,26.1,42,30.26,10.0,NW,6.9,-,N/A,,Clear,320,2012-02-25 06:56:00
1:56 AM,46.0,28.0,50,30.23,10.0,NNW,5.8,-,N/A,,Clear,340,2012-02-25 07:56:00
2:56 AM,45.0,28.0,52,30.24,10.0,Calm,Calm,-,N/A,,Clear,0,2012-02-25 08:56:00
3:56 AM,42.1,28.0,58,30.25,10.0,NW,3.5,-,N/A,,Clear,310,2012-02-25 09:56:00
4:56 AM,42.1,28.9,60,30.27,10.0,NW,4.6,-,N/A,,Clear,320,2012-02-25 10:56:00
5:56 AM,42.1,28.0,58,30.29,10.0,NW,4.6,-,N/A,,Clear,310,2012-02-25 11:56:00
6:56 AM,41.0,30.9,67,30.31,10.0,NNW,3.5,-,N/A,,Clear,340,2012-02-25 12:56:00
7:56 AM,44.1,28.9,55,30.34,10.0,NNW,6.9,-,N/A,,Clear,340,2012-02-25 13:56:00
8:56 AM,46.9,27.0,46,30.35,10.0,NNW,9.2,-,N/A,,Clear,340,2012-02-25 14:56:00
9:56 AM,51.1,21.9,32,30.35,10.0,North,11.5,18.4,N/A,,Clear,360,2012-02-25 15:56:00
10:56 AM,53.1,16.0,23,30.34,10.0,North,11.5,19.6,N/A,,Clear,350,2012-02-25 16:56:00
11:56 AM,55.0,17.1,23,30.31,10.0,NNW,8.1,-,N/A,,Clear,340,2012-02-25 17:56:00
12:56 PM,55.9,16.0,21,30.27,10.0,NNW,11.5,-,N/A,,Clear,340,2012-02-25 18:56:00
1:56 PM,55.9,15.1,20,30.26,10.0,NW,9.2,-,N/A,,Clear,320,2012-02-25 19:56:00
2:56 PM,57.0,17.1,21,30.25,10.0,NNW,10.4,-,N/A,,Clear,340,2012-02-25 20:56:00
3:56 PM,57.0,17.1,21,30.24,10.0,North,8.1,-,N/A,,Clear,10,2012-02-25 21:56:00
4:56 PM,55.9,19.9,25,30.26,10.0,NW,4.6,-,N/A,,Clear,320,2012-02-25 22:56:00
5:56 PM,52.0,26.1,37,30.28,10.0,Calm,Calm,-,N/A,,Clear,0,2012-02-25 23:56:00
6:56 PM,46.9,35.1,63,30.28,10.0,Calm,Calm,-,N/A,,Clear,0,2012-02-26 00:56:00
7:56 PM,45.0,35.1,68,30.30,10.0,Calm,Calm,-,N/A,,Clear,0,2012-02-26 01:56:00
8:56 PM,44.1,36.0,73,30.31,10.0,Calm,Calm,-,N/A,,Clear,0,2012-02-26 02:56:00
9:56 PM,43.0,37.0,80,30.30,10.0,North,4.6,-,N/A,,Clear,350,2012-02-26 03:56:00
10:56 PM,42.1,37.9,85,30.31,10.0,Calm,Calm,-,N/A,,Clear,0,2012-02-26 04:56:00
11:56 PM,43.0,39.0,86,30.29,10.0,Calm,Calm,-,N/A,,Clear,0,2012-02-26 05:56:00